[[{"header":{"parameterUnit":"m.s-1","parameterCategory":1,"la1":30.2991,"la2":30.254,"lo1":-89.0895,"lo2":-89.0444,"dy":0.0017,"dx":0.0017,"nx":28,"ny":28,"refTime":"2023-07-30T03:00:00:Z","depth":0,"parameterNumber":2,"parameterNumberName":"U-component_of_WINDS"},"data":[0,0,0,0,0,0,0,0,0,0,0,0,0,0,0,0,0,0,0,0,0,0,0,0,0,0,0,0,0,0,0,0,0,0,0,0,0,0,0,0,0,0,0,0,0,0,0,0,0,0,0,0,0,0,0,0,0,0,2.4189,2.4191,0,2.4336,2.4338,2.4339,2.4361,2.4359,2.4358,2.4357,2.4507,2.4512,2.4517,0,0,0,0,0,0,0,0,0,0,0,0,0,2.3925,2.393,2.4189,2.4191,2.4193,2.4336,2.4338,2.434,2.4361,2.4359,2.4358,2.4356,2.4505,2.4511,2.4517,0,0,0,0,0,0,0,0,0,0,0,0,0,2.4053,2.3932,2.4189,2.4221,2.4225,2.4335,2.4338,2.434,2.4361,2.4359,2.4357,2.4355,2.4503,2.451,2.4518,2.4607,0,0,2.4542,2.4546,0,0,0,0,0,0,0,0,2.4046,2.4063,2.4214,2.4219,2.4224,2.4328,2.43,2.443,2.4362,2.431,2.4357,2.4354,2.4449,2.4461,2.4493,2.4614,2.462,2.4543,2.4548,2.4551,2.4553,0,0,0,0,0,0,0,2.4037,2.4056,2.4247,2.4216,2.4222,2.4227,2.4243,2.4325,2.4389,2.4314,2.4316,2.4333,2.4451,2.4485,2.4497,2.4623,2.4543,2.455,2.4555,2.4558,2.4822,2.4825,0,0,0,0,0,0,2.4022,2.4049,2.4242,2.4252,2.4128,2.4233,2.4251,2.4297,2.4388,2.44,2.4335,2.4333,2.4473,2.4487,2.4502,2.461,2.4551,2.4558,2.4563,2.482,2.4823,2.4825,0,0,0,0,0,0,2.4017,2.4039,2.4237,2.4151,2.4176,2.424,2.4291,2.43,2.4335,2.4403,2.4415,2.4358,2.4472,2.4491,2.458,2.4616,2.4562,2.4569,2.4817,2.4821,2.4824,2.4829,0,0,0,0,0,0,2.4009,2.4037,2.4072,2.4151,2.4181,2.4313,2.4293,2.4305,2.4348,2.4348,2.4428,2.444,2.4472,2.4569,2.4588,2.4626,2.4575,2.4814,2.4819,2.4823,2.4825,2.4832,2.4837,0,0,0,0,0,2.3999,2.4067,2.4073,2.4097,2.4225,2.4315,2.4332,2.4367,2.4351,2.4386,2.443,2.4437,2.4609,2.4578,2.46,2.464,2.4812,2.4818,2.4823,2.4823,2.4831,2.4837,0,0,0,0,0,0,2.399,2.4078,2.4086,2.4182,2.4241,2.4318,2.4363,2.4375,2.4439,2.4436,2.4478,2.4496,2.4583,2.4621,2.4584,2.473,2.4709,2.4719,2.4702,2.471,2.4715,2.4703,2.4582,0,0,0,0,0,2.3999,2.4065,2.4138,2.4216,2.4245,2.4299,2.4339,2.4362,2.4424,2.4449,2.45,2.456,2.4627,2.4671,2.4737,2.4832,2.4849,2.4871,2.4876,2.4881,2.4888,2.494,2.495,2.4843,2.4843,2.4842,0,0,2.4019,2.4075,2.4114,2.4215,2.4264,2.433,2.432,2.4391,2.444,2.446,2.4547,2.4586,2.4656,2.4748,2.4791,2.4783,2.4922,2.4888,2.4891,2.4896,2.4946,2.4956,2.4965,2.4846,2.4845,2.4845,0,0,2.4087,2.4137,2.4206,2.4255,2.4328,2.4364,2.438,2.4456,2.4483,2.4571,2.4587,2.4647,2.4763,2.4811,2.4851,2.4938,2.4946,2.4959,2.4988,2.5038,2.5046,2.5054,2.5083,2.5093,2.4966,2.4966,2.4966,0,2.4102,2.4202,2.424,2.431,2.4354,2.4376,2.4445,2.4491,2.4582,2.4611,2.46,2.4745,2.4794,2.4897,2.4918,2.495,2.4969,2.4949,2.5042,2.505,2.5058,2.5086,2.5097,2.4967,2.4967,2.4967,2.4967,0,2.4216,2.4285,2.4333,2.4419,2.4469,2.4538,2.4586,2.4631,2.465,2.4686,2.4775,2.4835,2.4912,2.4939,2.4958,2.5044,2.5036,2.5034,2.5013,2.5068,2.5095,2.5106,2.4968,2.4968,2.4968,2.4968,0,0,2.4281,2.4388,2.4405,2.4444,2.4526,2.4581,2.4651,2.4727,2.4764,2.4827,2.4885,2.4983,2.498,2.5026,2.5051,2.5094,2.5157,2.5086,2.5088,2.5095,2.5254,2.5254,2.5266,2.5164,2.5166,2.5168,2.5247,0,2.4358,2.4483,2.452,2.4625,2.4689,2.4711,2.4772,2.4829,2.4865,2.4924,2.4964,2.5032,2.5025,2.5052,2.5096,2.514,2.5189,2.5135,2.5218,2.522,2.5197,2.528,2.5281,2.5353,2.5258,2.526,2.5262,0,2.4463,2.4527,2.4639,2.4712,2.474,2.4795,2.4867,2.4924,2.4988,2.5012,2.5062,2.5083,2.5156,2.5133,2.5234,2.5196,2.5233,2.5259,2.5263,2.527,2.5243,2.5288,2.5377,2.5387,2.5279,2.5278,2.5276,0,2.4497,2.4611,2.4693,2.4726,2.4814,2.4851,2.4889,2.4952,2.4995,2.5059,2.5087,2.5158,2.5196,2.5251,2.529,2.527,2.5387,2.5368,2.5407,2.5406,2.5429,2.5427,2.5523,2.5456,2.5456,2.5456,2.5455,0,2.4577,2.4644,2.4709,2.4758,2.4834,2.4875,2.4949,2.4988,2.5044,2.5101,2.5125,2.5178,2.5228,2.5287,2.5319,2.5397,2.5415,2.5434,2.5441,2.5431,2.5428,2.5454,2.5449,2.5459,2.5458,2.5457,2.5457,0,2.4627,2.4673,2.4763,2.4839,2.4859,2.4911,2.4976,2.5025,2.5063,2.5135,2.5154,2.5212,2.5284,2.5329,2.542,2.5441,2.5526,2.5532,2.5503,2.5506,2.5543,2.5538,2.5657,2.5674,2.5597,2.5598,2.5599,0,2.4674,2.4726,2.4808,2.4848,2.4886,2.4951,2.4995,2.5038,2.5082,2.516,2.5199,2.5272,2.5332,2.5446,2.5496,2.5565,2.5573,2.561,2.5583,2.557,2.5571,2.5566,2.5571,2.5613,2.5614,2.5614,2.5615,0,2.4752,2.4772,2.4835,2.4905,2.4957,2.5015,2.5073,2.5104,2.5156,2.5206,2.5279,2.5326,2.5419,2.549,2.5564,2.5603,2.5617,2.5623,2.5635,2.5624,2.5604,2.5614,2.5513,2.562,2.5619,2.5619,2.5618,2.5618,2.48,2.4847,2.4911,2.498,2.5028,2.5081,2.513,2.5174,2.5236,2.5314,2.5336,2.5412,2.5475,2.5576,2.5617,2.5677,2.5672,2.569,2.5694,2.5698,2.5697,2.5597,2.5691,2.5691,2.569,2.569,2.569,0,2.4877,2.492,2.4983,2.5063,2.5116,2.5126,2.519,2.5234,2.5301,2.5359,2.5418,2.5501,2.5571,2.5627,2.5699,2.5736,2.5744,2.5753,2.575,2.5758,2.5699,2.568,2.5745,2.5745,2.5745,2.5745,2.5745,2.5745,2.4924,2.5002,2.503,2.5133,2.5175,2.525,2.5285,2.5334,2.538,2.5473,2.5531,2.5567,2.5624,2.57,2.5764,2.5778,2.5803,2.581,2.5826,2.5769,2.5762,2.5757,2.5739,2.5816,2.5816,2.588,2.5881,2.5881]},{"header":{"parameterUnit":"m.s-1","parameterCategory":1,"la1":30.2991,"la2":30.254,"lo1":-89.0895,"lo2":-89.0444,"dy":0.0017,"dx":0.0017,"nx":28,"ny":28,"refTime":"2023-07-30T03:00:00:Z","depth":0,"parameterNumber":3,"parameterNumberName":"V-component_of_WINDS"},"data":[0,0,0,0,0,0,0,0,0,0,0,0,0,0,0,0,0,0,0,0,0,0,0,0,0,0,0,0,0,0,0,0,0,0,0,0,0,0,0,0,0,0,0,0,0,0,0,0,0,0,0,0,0,0,0,0,0,0,2.4096,2.4096,0,2.4125,2.4125,2.4126,2.4096,2.4095,2.4094,2.4093,2.412,2.4122,2.4124,0,0,0,0,0,0,0,0,0,0,0,0,0,2.401,2.4012,2.4096,2.4096,2.4096,2.4125,2.4125,2.4126,2.4097,2.4095,2.4094,2.4093,2.412,2.4122,2.4124,0,0,0,0,0,0,0,0,0,0,0,0,0,2.4044,2.4013,2.4096,2.4085,2.4085,2.4125,2.4125,2.4126,2.4097,2.4095,2.4094,2.4092,2.4119,2.4122,2.4124,2.4175,0,0,2.4132,2.4134,0,0,0,0,0,0,0,0,2.4042,2.4047,2.4087,2.4086,2.4086,2.4105,2.4105,2.4142,2.4097,2.4092,2.4093,2.4091,2.4117,2.4119,2.4129,2.4176,2.4178,2.4133,2.4134,2.4135,2.4136,0,0,0,0,0,0,0,2.404,2.4046,2.4107,2.4087,2.4087,2.4078,2.4081,2.4112,2.4114,2.4093,2.4091,2.4095,2.4116,2.4126,2.4129,2.4178,2.4133,2.4135,2.4137,2.4138,2.4267,2.4269,0,0,0,0,0,0,2.4039,2.4044,2.4106,2.4108,2.4059,2.4081,2.4084,2.4101,2.4113,2.4113,2.4096,2.4093,2.4122,2.4126,2.413,2.4189,2.4135,2.4138,2.414,2.4266,2.4268,2.427,0,0,0,0,0,0,2.4038,2.4045,2.4105,2.4076,2.4083,2.4084,2.4103,2.4102,2.4112,2.4116,2.4116,2.4106,2.4121,2.4126,2.4164,2.419,2.4139,2.4142,2.4263,2.4266,2.4269,2.4309,0,0,0,0,0,0,2.4035,2.4045,2.4065,2.4076,2.4084,2.414,2.4105,2.4104,2.4117,2.4114,2.4125,2.4126,2.412,2.416,2.4167,2.4193,2.4144,2.4261,2.4265,2.4268,2.4306,2.4313,2.432,0,0,0,0,0,2.4032,2.4075,2.4066,2.4074,2.411,2.4142,2.4146,2.414,2.412,2.4139,2.4141,2.4125,2.4186,2.4164,2.4171,2.4199,2.4259,2.4264,2.4268,2.4303,2.4312,2.4319,0,0,0,0,0,0,2.4066,2.4076,2.4067,2.4115,2.4128,2.4137,2.4162,2.415,2.4168,2.4164,2.4154,2.4157,2.4197,2.4201,2.4177,2.4248,2.4219,2.4225,2.4243,2.4252,2.4259,2.4257,2.4146,0,0,0,0,0,2.4079,2.4105,2.4112,2.4154,2.4161,2.416,2.4174,2.4168,2.418,2.4185,2.419,2.4202,2.4224,2.4238,2.4258,2.4306,2.4308,2.4328,2.4335,2.4341,2.4346,2.437,2.4379,2.4283,2.4283,2.4283,0,0,2.4106,2.4115,2.4132,2.416,2.417,2.4196,2.4165,2.4194,2.4212,2.4189,2.4225,2.4229,2.4242,2.4285,2.4304,2.429,2.4372,2.4346,2.4351,2.4352,2.4375,2.4384,2.4392,2.4286,2.4286,2.4285,0,0,2.4168,2.4178,2.4213,2.4223,2.4238,2.4237,2.4246,2.4257,2.4258,2.4295,2.4278,2.4299,2.4337,2.4346,2.4356,2.4421,2.4406,2.4428,2.4464,2.4488,2.4495,2.4502,2.4524,2.4532,2.4433,2.4433,2.4433,0,2.42,2.424,2.4233,2.4263,2.4275,2.4256,2.4291,2.43,2.432,2.4329,2.4313,2.4359,2.4367,2.4411,2.4427,2.4436,2.4444,2.4426,2.4495,2.4501,2.4507,2.4528,2.4537,2.4435,2.4435,2.4435,2.4434,0,2.4277,2.4304,2.4331,2.4351,2.4367,2.4399,2.4396,2.4412,2.4404,2.4404,2.4441,2.4449,2.447,2.448,2.4472,2.4523,2.4513,2.4496,2.4468,2.4519,2.4539,2.4547,2.4439,2.4438,2.4437,2.4436,0,0,2.4362,2.4378,2.4388,2.4396,2.4411,2.4431,2.4461,2.4483,2.4496,2.4511,2.4535,2.4567,2.4551,2.4562,2.4555,2.4577,2.4626,2.4557,2.4557,2.4569,2.4681,2.4694,2.4703,2.4617,2.4618,2.462,2.468,0,2.4424,2.4478,2.4473,2.4524,2.4548,2.453,2.4556,2.4567,2.4568,2.4588,2.4588,2.4611,2.4588,2.4595,2.4615,2.4616,2.4649,2.4612,2.4638,2.4639,2.4636,2.4713,2.4727,2.4783,2.4687,2.4689,2.469,0,2.4504,2.4522,2.4576,2.4585,2.4595,2.4619,2.4638,2.4657,2.4669,2.4668,2.468,2.4669,2.4698,2.4669,2.4708,2.4684,2.4694,2.4696,2.4698,2.47,2.4667,2.4717,2.4801,2.481,2.4702,2.4701,2.47,0,2.456,2.4597,2.4634,2.4642,2.4654,2.4671,2.4677,2.4687,2.4699,2.4715,2.4723,2.4741,2.4752,2.4766,2.476,2.4739,2.48,2.4771,2.4799,2.4799,2.4812,2.4812,2.4899,2.482,2.482,2.482,2.482,0,2.463,2.4663,2.4659,2.4681,2.4717,2.471,2.4745,2.4749,2.4757,2.4779,2.4764,2.4785,2.4776,2.4795,2.4791,2.4824,2.4828,2.4828,2.4826,2.4829,2.4829,2.4835,2.4831,2.4822,2.4822,2.4821,2.4821,0,2.4698,2.4697,2.4735,2.4744,2.4746,2.4773,2.4779,2.48,2.4799,2.4827,2.4833,2.4832,2.4854,2.485,2.4874,2.4871,2.4912,2.4905,2.4908,2.4906,2.4935,2.4932,2.5029,2.5041,2.4955,2.4956,2.4956,0,2.4743,2.4768,2.4779,2.4793,2.48,2.4823,2.4836,2.4828,2.4842,2.4857,2.4875,2.4896,2.4912,2.4949,2.4949,2.4968,2.4961,2.4994,2.4964,2.4965,2.4961,2.4959,2.4961,2.5,2.5001,2.5002,2.5002,0,2.4822,2.4819,2.4839,2.4859,2.4875,2.4889,2.4902,2.4914,2.4908,2.4924,2.4947,2.496,2.4985,2.5005,2.5022,2.5026,2.5013,2.5012,2.5019,2.5022,2.5023,2.5022,2.4924,2.501,2.5009,2.5008,2.5008,2.5008,2.4879,2.49,2.4911,2.4933,2.4942,2.4955,2.4974,2.4976,2.4995,2.5015,2.501,2.5035,2.5045,2.5066,2.5072,2.5092,2.5079,2.509,2.5093,2.5095,2.5099,2.502,2.5095,2.5094,2.5094,2.5094,2.5094,0,2.4956,2.4962,2.4983,2.5002,2.5019,2.5005,2.5019,2.5034,2.5057,2.5067,2.5084,2.5109,2.5129,2.5131,2.5149,2.5164,2.5159,2.5169,2.5168,2.5169,2.5109,2.5101,2.5174,2.5174,2.5174,2.5174,2.5174,2.5174,2.4999,2.5033,2.5032,2.5071,2.5076,2.5102,2.5111,2.5122,2.513,2.5159,2.5176,2.5177,2.5184,2.5202,2.5219,2.5219,2.5227,2.524,2.5237,2.5181,2.5173,2.5166,2.5158,2.5241,2.5241,2.5295,2.5296,2.5296]}]]